Location: Sternwarte ZA, Rosenfeld-Brittheim
(48.2889°N, 8.6789°E)
Time: 21:22:49
(UTC+02:00)

ISS - Pass Details

Date: 23 May 2021
Orbit: 417 x 422 km, 51.6° (Epoch: 15 June)

Event Time Altitude Azimuth Distance (km) Brightness Sun altitude
Rises 23:45:54 0° 291° (WNW) 2,369 0.8 -17.7°
Reaches altitude 10° 23:48:00 10° 293° (WNW) 1,505 -0.3 -17.8°
Maximum altitude 23:51:23 80° 19° (NNE) 431 -3.7 -18.0°
Enters shadow 23:52:18 45° 101° (E) 583 -3.3 -18.1°
